Location: Six Mile Lake
(44.9000°N, 79.7170°W)
Time: 23:27:50
(UTC-04:00)

M-CUBED/EXP-1 PRIME - Visible Passes

Search period start: 28 June 2022 00:00
Search period end: 08 July 2022 00:00
Orbit: 423 x 634 km, 101.7° (Epoch: 28 June)

Date Brightness Start Highest point End Pass type
(mag) Time Alt. Az. Time Alt. Az. Time Alt. Az.
28 Jun ? 01:30:01 18° E 01:30:53 20° ENE 01:33:20 10° NNE visible
28 Jun ? 03:05:16 22° W 03:05:16 22° W 03:07:22 10° NW visible
29 Jun ? 01:18:47 12° E 01:19:59 15° ENE 01:21:53 10° NNE visible
29 Jun ? 02:54:01 33° W 02:54:01 33° W 02:56:39 10° NW visible
30 Jun ? 01:08:19 10° ENE 01:09:06 11° NE 01:09:54 10° NE visible
30 Jun ? 02:42:47 51° W 02:42:47 51° W 02:45:47 10° NNW visible
01 Jul ? 02:31:32 82° W 02:31:32 82° W 02:34:49 10° NNW visible
02 Jul ? 02:20:16 62° E 02:20:26 64° ENE 02:23:46 10° NNW visible
03 Jul ? 02:08:59 39° E 02:09:26 42° ENE 02:12:39 10° N visible
03 Jul ? 03:44:14 11° W 03:44:14 11° W 03:44:41 10° WNW visible
04 Jul ? 01:57:42 26° E 01:58:26 29° ENE 02:01:26 10° N visible
04 Jul ? 03:32:57 16° W 03:32:57 16° W 03:34:37 10° WNW visible
05 Jul ? 01:46:24 18° E 01:47:27 21° ENE 01:50:07 10° N visible
05 Jul ? 03:21:39 23° W 03:21:39 23° W 03:24:03 10° NW visible
06 Jul ? 01:35:06 13° E 01:36:30 16° ENE 01:38:39 10° NNE visible
06 Jul ? 03:10:21 34° W 03:10:21 34° W 03:13:16 10° NW visible
07 Jul ? 01:24:16 10° ENE 01:25:34 12° NE 01:26:53 10° NNE visible
07 Jul ? 02:59:02 52° W 02:59:02 52° W 03:02:21 10° NNW visible
